Total_Precipitation_Accumulation
0.17 0.15 0.14 0.11 0.10 0.09 0.07 0.06 0.05 0.03 0.02 0.01 0.00 0.00 0.00 0.00 0.00 0.00 0.00 0.00 0.00 0.00 0.00 0.00 0.00 0.02 0.07 0.19 1.14 1.64 5.57 5.15 2.60 2.43 2.39 1.17 1.06 1.66 1.12 0.47 0.33 0.38 0.26 0.16 0.09
0.16 0.15 0.13 0.13 0.12 0.11 0.07 0.05 0.06 0.03 0.03 0.01 0.00 0.00 0.00 0.01 0.00 0.00 0.00 0.00 0.00 0.00 0.00 0.00 0.00 0.02 0.13 0.27 0.99 3.59 6.00 5.60 2.95 1.52 1.00 0.73 1.19 0.71 0.42 0.50 0.67 0.46 0.30 0.31 0.18
0.15 0.14 0.14 0.13 0.12 0.11 0.08 0.08 0.07 0.05 0.03 0.02 0.00 0.00 0.00 0.00 0.00 0.00 0.00 0.00 0.00 0.00 0.00 0.00 0.00 0.01 0.17 0.25 0.71 2.72 5.13 3.76 3.18 1.30 0.88 1.02 1.18 0.71 0.41 1.04 1.68 1.25 0.73 0.63 0.21
0.15 0.15 0.15 0.14 0.12 0.11 0.10 0.08 0.06 0.05 0.02 0.02 0.00 0.00 0.00 0.00 0.00 0.00 0.00 0.00 0.00 0.00 0.00 0.00 0.00 0.11 0.38 0.54 0.64 1.96 2.41 2.56 2.66 1.14 0.93 1.51 1.26 1.38 1.03 1.44 0.55 0.55 0.24 0.17 0.11
0.15 0.14 0.14 0.13 0.11 0.11 0.09 0.07 0.06 0.05 0.03 0.01 0.01 0.01 0.00 0.00 0.00 0.00 0.00 0.00 0.00 0.00 0.00 0.00 0.02 0.18 0.48 0.67 0.63 1.38 2.43 1.70 2.03 1.64 1.44 0.97 0.94 1.53 1.20 2.28 0.80 0.31 0.12 0.08 0.17
0.15 0.14 0.13 0.13 0.12 0.10 0.09 0.07 0.04 0.03 0.03 0.01 0.02 0.01 0.00 0.00 0.00 0.00 0.00 0.00 0.00 0.00 0.00 0.00 0.04 0.11 0.17 0.84 1.47 1.03 1.58 1.31 1.51 2.17 1.44 1.53 0.96 0.61 0.76 0.87 0.78 0.38 0.16 0.24 0.28
0.16 0.15 0.14 0.13 0.11 0.09 0.07 0.05 0.03 0.02 0.02 0.02 0.03 0.01 0.00 0.00 0.00 0.00 0.00 0.00 0.00 0.00 0.00 0.00 0.02 0.02 0.19 1.04 0.79 0.87 1.77 1.78 1.65 1.95 1.79 2.23 2.88 1.28 1.13 0.80 0.67 0.43 0.48 0.52 0.76
0.15 0.14 0.12 0.12 0.09 0.07 0.04 0.02 0.01 0.01 0.02 0.03 0.03 0.00 0.00 0.00 0.00 0.00 0.00 0.00 0.00 0.00 0.00 0.00 0.00 0.00 0.09 0.46 0.81 2.49 2.75 2.88 2.67 2.08 1.70 2.58 5.73 2.89 1.21 0.86 0.75 0.85 1.11 0.47 1.09
0.14 0.13 0.12 0.11 0.09 0.06 0.02 0.00 0.00 0.01 0.00 0.01 0.00 0.00 0.00 0.00 0.00 0.00 0.00 0.00 0.00 0.00 0.00 0.00 0.00 0.00 0.05 0.55 1.53 2.02 2.54 3.20 3.07 2.45 2.78 3.28 5.39 3.43 1.16 0.76 1.15 1.66 0.87 0.92 1.76
0.14 0.12 0.11 0.11 0.09 0.04 0.00 0.00 0.00 0.00 0.00 0.00 0.00 0.00 0.00 0.00 0.00 0.00 0.00 0.00 0.00 0.00 0.00 0.00 0.00 0.00 0.06 0.24 1.02 1.65 1.16 1.94 2.72 2.32 3.29 2.83 2.10 2.32 1.22 2.23 1.39 0.79 0.53 1.68 2.08
0.13 0.13 0.13 0.10 0.07 0.04 0.01 0.01 0.00 0.00 0.00 0.00 0.00 0.00 0.00 0.00 0.00 0.00 0.00 0.00 0.00 0.00 0.00 0.00 0.00 0.01 0.13 0.17 0.36 0.28 1.08 1.84 2.45 2.44 3.26 2.63 2.10 2.88 1.09 1.78 1.75 0.51 1.13 1.70 1.31
0.13 0.13 0.12 0.08 0.06 0.05 0.01 0.00 0.00 0.00 0.00 0.00 0.00 0.00 0.00 0.00 0.00 0.00 0.00 0.00 0.00 0.00 0.00 0.01 0.00 0.00 0.02 0.04 0.11 0.23 0.95 1.39 2.34 2.03 3.07 5.05 3.66 2.65 1.37 1.11 0.94 0.74 1.57 1.38 0.84
0.14 0.13 0.11 0.06 0.03 0.02 0.00 0.00 0.00 0.00 0.00 0.00 0.00 0.00 0.00 0.00 0.00 0.00 0.00 0.00 0.00 0.00 0.00 0.00 0.00 0.00 0.00 0.05 0.12 0.21 0.38 0.73 1.17 1.29 2.03 3.73 5.08 3.44 1.57 1.56 1.49 1.03 0.94 0.54 0.88
0.15 0.15 0.10 0.03 0.01 0.00 0.00 0.00 0.00 0.00 0.00 0.00 0.00 0.00 0.00 0.00 0.00 0.00 0.00 0.00 0.00 0.00 0.00 0.00 0.00 0.00 0.00 0.01 0.08 0.42 0.28 0.34 0.37 0.50 1.21 0.90 3.39 2.86 1.91 1.77 2.90 1.35 0.91 0.54 0.39
0.15 0.15 0.11 0.04 0.00 0.00 0.00 0.00 0.00 0.00 0.02 0.00 0.00 0.00 0.00 0.00 0.00 0.00 0.00 0.00 0.00 0.00 0.00 0.00 0.00 0.01 0.00 0.00 0.06 0.08 0.13 0.20 0.45 0.48 0.31 0.41 1.08 1.99 1.54 1.59 1.86 1.56 1.19 0.74 0.59
0.14 0.14 0.13 0.02 0.00 0.00 0.00 0.00 0.00 0.00 0.02 0.00 0.00 0.00 0.00 0.00 0.00 0.00 0.00 0.00 0.00 0.00 0.00 0.00 0.00 0.00 0.00 0.00 0.01 0.02 0.12 0.22 0.36 0.53 0.42 0.21 0.24 1.01 0.93 1.05 1.37 0.73 0.92 1.19 0.63
0.10 0.10 0.11 0.00 0.00 0.00 0.00 0.00 0.01 0.02 0.01 0.00 0.00 0.00 0.00 0.00 0.00 0.00 0.00 0.00 0.00 0.00 0.00 0.00 0.00 0.00 0.00 0.01 0.06 0.05 0.17 0.21 0.28 0.21 0.33 0.32 0.54 0.76 0.60 0.55 0.57 0.54 0.85 1.05 1.20
0.04 0.06 0.02 0.00 0.00 0.00 0.00 0.00 0.10 0.05 0.04 0.00 0.00 0.00 0.00 0.00 0.00 0.00 0.00 0.00 0.00 0.00 0.00 0.00 0.00 0.00 0.00 0.00 0.01 0.01 0.01 0.13 0.36 0.34 0.41 0.51 0.71 0.55 0.15 0.13 0.22 0.32 0.43 0.39 0.39
0.01 0.00 0.00 0.00 0.00 0.00 0.00 0.07 0.11 0.09 0.06 0.00 0.00 0.00 0.00 0.00 0.00 0.00 0.00 0.00 0.00 0.00 0.00 0.00 0.00 0.00 0.00 0.00 0.00 0.01 0.03 0.04 0.06 0.11 0.08 0.44 1.09 0.90 0.45 0.21 0.29 0.16 0.34 0.45 0.37
0.00 0.00 0.00 0.00 0.00 0.00 0.03 0.08 0.03 0.03 0.05 0.00 0.00 0.00 0.01 0.00 0.00 0.00 0.00 0.01 0.00 0.00 0.00 0.00 0.01 0.00 0.00 0.02 0.06 0.07 0.16 0.07 0.03 0.08 0.13 0.41 0.88 2.06 1.28 0.95 0.61 0.40 0.23 0.52 0.61
0.00 0.00 0.00 0.00 0.00 0.00 0.24 0.11 0.00 0.02 0.04 0.01 0.00 0.00 0.01 0.02 0.02 0.02 0.05 0.02 0.01 0.00 0.00 0.00 0.01 0.02 0.02 0.06 0.05 0.05 0.04 0.04 0.03 0.05 0.22 0.57 0.83 1.01 1.65 0.69 0.46 0.63 0.48 0.55 0.71
0.00 0.00 0.00 0.00 0.00 0.01 0.08 0.02 0.00 0.02 0.04 0.02 0.01 0.00 0.01 0.06 0.03 0.09 0.16 0.12 0.01 0.00 0.00 0.00 0.00 0.01 0.01 0.02 0.03 0.20 0.11 0.15 0.03 0.15 0.29 0.39 0.78 1.00 1.61 0.80 0.45 0.47 0.46 0.54 0.72
0.03 0.00 0.00 0.00 0.02 0.08 0.01 0.00 0.01 0.02 0.02 0.02 0.05 0.05 0.02 0.02 0.05 0.09 0.12 0.07 0.04 0.01 0.03 0.08 0.05 0.02 0.03 0.03 0.04 0.01 0.03 0.10 0.11 0.08 0.19 0.22 0.41 0.37 0.51 0.55 0.52 0.48 0.26 0.30 0.81
0.11 0.09 0.00 0.00 0.00 0.01 0.03 0.05 0.03 0.02 0.04 0.03 0.08 0.08 0.03 0.01 0.02 0.16 0.08 0.06 0.03 0.04 0.11 0.15 0.03 0.02 0.08 0.09 0.09 0.03 0.00 0.02 0.02 0.02 0.04 0.10 0.11 0.22 0.19 0.76 1.06 0.37 0.35 0.23 0.46
0.19 0.72 0.10 0.03 0.00 0.04 0.11 0.11 0.07 0.08 0.04 0.06 0.20 0.21 0.10 0.07 0.06 0.16 0.09 0.02 0.03 0.05 0.09 0.08 0.02 0.00 0.01 0.02 0.02 0.04 0.04 0.01 0.05 0.01 0.05 0.11 0.08 0.37 0.73 0.98 0.92 0.60 0.50 0.54 0.53
0.18 0.44 0.25 0.16 0.06 0.04 0.07 0.12 0.11 0.05 0.04 0.04 0.17 0.18 0.17 0.26 0.25 0.24 0.24 0.11 0.09 0.10 0.14 0.06 0.02 0.01 0.01 0.00 0.00 0.02 0.02 0.01 0.05 0.07 0.14 0.12 0.22 0.62 0.91 0.73 0.78 0.80 0.85 0.83 1.13
0.21 0.24 0.39 0.22 0.11 0.24 0.17 0.18 0.15 0.30 0.28 0.25 0.39 0.44 0.32 0.34 0.41 0.49 0.26 0.17 0.07 0.08 0.16 0.10 0.13 0.11 0.04 0.01 0.01 0.01 0.04 0.02 0.02 0.06 0.16 0.25 0.57 1.19 0.76 0.73 0.82 1.08 1.82 2.21 1.75